Location: Gro�sch�nbrunn
(49.5760°N, 11.8868°E)
Time: 15:33:44
(UTC+00:00)

SWAS - Pass Details

Date: 18 September 2020
Orbit: 581 x 590 km, 69.9° (Epoch: 27 October)

Event Time Altitude Azimuth Distance (km) Brightness Sun altitude
Rises 19:31:54 0° 328° (NNW) 2,830 9.0 -21.4°
Reaches altitude 10° 19:34:09 10° 328° (NNW) 1,923 8.0 -21.7°
Maximum altitude 19:38:27 82° 242° (WSW) 599 4.4 -22.3°
Enters shadow 19:38:55 69° 175° (S) 630 4.4 -22.4°
